GW2464 Weather Reports


Display with metric or nautical units.
time (UTC)temp
F
wind
direction
speed
MPH
gust
MPH
rain 1hr
in
rain 24hr
in
rain mn
in
humidity
%
barometer
mb
20260510185439 57 300 2.0 2.0 0.00 0.13 0.13 89 1014.2
20260510184936 57 278 2.0 2.0 0.00 0.13 0.13 90 1014.2
20260510184433 57 250 2.0 2.0 0.00 0.13 0.13 93 1013.9
20260510183933 56 324 1.0 1.0 0.00 0.13 0.13 94 1014.2
20260510183430 56 334 2.0 2.0 0.00 0.13 0.13 95 1014.0
20260510182924 56 315 1.0 1.0 0.00 0.13 0.13 97 1014.2
20260510182421 56 359 0.0 1.0 0.00 0.13 0.13 97 1014.0
20260510181916 56 4 0.0 0.0 0.00 0.13 0.13 97 1013.8
20260510181414 56 356 0.0 0.0 0.00 0.13 0.13 98 1014.0
20260510180910 56 74 1.0 2.0 0.00 0.13 0.13 97 1013.9
20260510180408 55 16 0.0 0.0 0.00 0.13 0.13 97 1014.0
20260510175904 55 14 0.0 1.0 0.00 0.13 0.13 99 1013.8
20260510175400 54 343 0.0 0.0 0.00 0.13 0.13 99 1014.1
20260510174856 54 160 3.0 3.0 0.05 0.13 0.13 99 1013.8
20260510174355 54 4 2.0 2.0 0.05 0.13 0.13 99 1013.6
20260510173850 54 278 2.0 2.0 0.07 0.12 0.12 99 1013.7
20260510173346 54 264 2.0 2.0 0.12 0.12 0.12 99 1013.9
20260510172843 54 341 1.0 1.0 0.12 0.11 0.11 99 1013.7
20260510172339 54 336 1.0 1.0 0.07 0.10 0.10 99 1013.9
20260510171835 54 302 1.0 2.0 0.00 0.09 0.09 99 1013.7
20260510171333 55 309 1.0 1.0 0.12 0.09 0.09 99 1013.7
20260510170830 55 297 1.0 2.0 0.31 0.09 0.09 98 1013.6
20260510170326 55 275 1.0 1.0 0.24 0.07 0.07 97 1013.7
20260510165821 56 122 2.0 2.0 0.12 0.04 0.04 96 1013.9
20260510165318 57 293 1.0 1.0 0.12 0.03 0.03 94 1013.7
20260510164815 57 313 1.0 1.0 0.12 0.02 0.02 89 1013.5
20260510164313 58 338 1.0 1.0 0.07 0.01 0.01 84 1013.5
20260510163812 59 209 2.0 2.0 0.00 0.00 0.00 82 1013.5
20260510163308 60 170 3.0 3.0 0.00 0.00 0.00 81 1013.3
20260510162808 60 303 1.0 2.0 0.00 0.00 0.00 78 1013.2
20260510162306 61 288 1.0 2.0 0.00 0.00 0.00 75 1013.4
20260510161801 61 129 2.0 2.0 0.00 0.00 0.00 77 1013.3
20260510161257 61 244 7.0 8.0 0.00 0.00 0.00 75 1013.3
20260510160754 61 185 2.0 2.0 0.00 0.00 0.00 78 1013.1
20260510160251 60 355 0.0 1.0 0.00 0.00 0.00 77 1013.2
20260510155746 60 222 2.0 2.0 0.00 0.00 0.00 78 1013.2
20260510155242 60 146 1.0 2.0 0.00 0.00 0.00 81 1013.4
20260510154738 58 185 3.0 3.0 0.00 0.00 0.00 85 1013.5
20260510154234 58 268 3.0 3.0 0.00 0.00 0.00 84 1013.7
20260510153729 58 334 1.0 1.0 0.00 0.00 0.00 86 1013.8
20260510153225 57 340 0.0 1.0 0.00 0.00 0.00 87 1013.6
20260510152722 57 305 2.0 2.0 0.00 0.00 0.00 86 1013.7
20260510152218 57 276 3.0 3.0 0.00 0.00 0.00 85 1013.7
20260510151715 58 308 2.0 3.0 0.00 0.00 0.00 85 1013.4
20260510151214 59 302 1.0 1.0 0.00 0.00 0.00 83 1013.4
20260510150709 58 302 1.0 1.0 0.00 0.00 0.00 85 1013.2
20260510150204 57 327 3.0 3.0 0.00 0.00 0.00 86 1013.1
20260510145701 57 345 0.0 1.0 0.00 0.00 0.00 89 1013.4
20260510145157 56 288 1.0 2.0 0.00 0.00 0.00 89 1013.6
20260510144653 56 296 1.0 1.0 0.00 0.00 0.00 90 1013.3
20260510144150 56 298 2.0 2.0 0.00 0.00 0.00 89 1013.5
20260510143645 56 185 2.0 2.0 0.00 0.00 0.00 89 1013.2
20260510143142 57 271 2.0 3.0 0.00 0.00 0.00 90 1013.3
20260510142638 56 330 1.0 1.0 0.00 0.00 0.00 91 1013.2
20260510142135 56 234 5.0 5.0 0.00 0.00 0.00 90 1013.2
20260510141632 56 265 3.0 3.0 0.00 0.00 0.00 90 1013.2
20260510141130 56 251 2.0 2.0 0.00 0.00 0.00 90 1013.5
20260510140626 56 210 6.0 7.0 0.00 0.00 0.00 90 1013.1
20260510140126 56 228 5.0 6.0 0.00 0.00 0.00 89 1013.0
20260510135621 56 307 1.0 1.0 0.00 0.00 0.00 90 1013.0
20260510135118 56 247 4.0 5.0 0.00 0.00 0.00 90 1013.0
20260510134615 56 320 2.0 2.0 0.00 0.00 0.00 90 1012.6
20260510134112 55 232 4.0 6.0 0.00 0.00 0.00 89 1012.9
20260510133608 56 265 3.0 3.0 0.00 0.00 0.00 90 1012.8
20260510133103 56 246 3.0 3.0 0.00 0.00 0.00 91 1012.5
20260510132600 54 156 2.0 3.0 0.00 0.00 0.00 94 1012.6
20260510132057 53 209 4.0 5.0 0.00 0.00 0.00 99 1012.8
20260510131555 54 242 3.0 5.0 0.00 0.00 0.00 99 1012.9
20260510131052 53 260 4.0 5.0 0.00 0.00 0.00 99 1013.0
20260510130548 53 203 2.0 2.0 0.00 0.00 0.00 99 1012.9
20260510130046 53 47 1.0 1.0 0.00 0.00 0.00 99 1012.9
20260510125542 53 172 3.0 3.0 0.00 0.00 0.00 99 1012.9
20260510125038 53 8 0.0 0.0 0.00 0.00 0.00 99 1012.5
20260510124535 53 7 0.0 0.0 0.00 0.00 0.00 99 1012.6
20260510124032 52 23 0.0 0.0 0.00 0.00 0.00 99 1012.6
20260510123527 52 31 1.0 1.0 0.00 0.00 0.00 99 1012.5
20260510123024 51 24 0.0 0.0 0.00 0.00 0.00 99 1012.6
20260510122519 51 33 1.0 1.0 0.00 0.00 0.00 99 1012.2
20260510122016 50 24 1.0 1.0 0.00 0.00 0.00 99 1012.2
20260510121513 50 13 0.0 0.0 0.00 0.00 0.00 99 1012.3
20260510121011 50 10 0.0 0.0 0.00 0.00 0.00 99 1012.3
20260510120508 50 65 1.0 2.0 0.00 0.00 0.00 99 1012.3
20260510120004 49 37 1.0 1.0 0.00 0.00 0.00 99 1012.2
20260510115500 49 30 1.0 1.0 0.00 0.00 0.00 99 1012.1
20260510114956 48 16 0.0 1.0 0.00 0.00 0.00 99 1012.1
20260510114453 48 22 1.0 1.0 0.00 0.00 0.00 99 1012.1
20260510113949 48 13 0.0 1.0 0.00 0.00 0.00 99 1012.1
20260510113444 47 10 0.0 0.0 0.00 0.00 0.00 99 1011.9
20260510112942 47 6 0.0 1.0 0.00 0.00 0.00 99 1011.7
20260510112439 47 3 0.0 0.0 0.00 0.00 0.00 99 1011.9
20260510111936 47 4 1.0 1.0 0.00 0.00 0.00 99 1011.6
20260510111432 46 14 0.0 1.0 0.00 0.00 0.00 99 1011.5
20260510110927 46 20 0.0 0.0 0.00 0.00 0.00 99 1011.6
20260510110424 46 6 0.0 1.0 0.00 0.00 0.00 99 1011.6
20260510105920 46 5 0.0 1.0 0.00 0.00 0.00 99 1011.6
20260510105415 45 17 0.0 0.0 0.00 0.00 0.00 99 1011.3
20260510104910 45 3 0.0 0.0 0.00 0.00 0.00 99 1011.3
20260510104408 45 21 1.0 1.0 0.00 0.00 0.00 99 1011.6
20260510103904 45 14 0.0 1.0 0.00 0.00 0.00 99 1011.3
20260510103401 45 7 1.0 1.0 0.00 0.00 0.00 99 1011.2
20260510102856 45 5 0.0 0.0 0.00 0.00 0.00 99 1011.2
20260510102352 45 5 0.0 0.0 0.00 0.00 0.00 99 1010.9
20260510101850 45 5 0.0 0.0 0.00 0.00 0.00 99 1010.8
20260510101348 45 3 0.0 0.0 0.00 0.00 0.00 99 1011.0
20260510100844 45 351 0.0 0.0 0.00 0.00 0.00 99 1010.8
20260510100342 45 352 0.0 0.0 0.00 0.00 0.00 99 1010.8
20260510095838 45 352 0.0 0.0 0.00 0.00 0.00 99 1011.1
20260510095327 45 352 0.0 0.0 0.00 0.00 0.00 99 1010.9
20260510094826 45 9 0.0 0.0 0.00 0.00 0.00 99 1010.9
20260510094322 45 10 0.0 0.0 0.00 0.00 0.00 99 1010.8
20260510093819 45 347 0.0 0.0 0.00 0.00 0.00 99 1011.1
20260510093315 46 10 0.0 0.0 0.00 0.00 0.00 99 1010.6
20260510092811 45 10 0.0 0.0 0.00 0.00 0.00 99 1010.7
20260510092307 45 10 0.0 0.0 0.00 0.00 0.00 99 1010.7
20260510091803 44 353 1.0 1.0 0.00 0.00 0.00 99 1010.6
20260510091301 45 10 0.0 0.0 0.00 0.00 0.00 99 1010.6
20260510090756 45 3 0.0 0.0 0.00 0.00 0.00 99 1010.6
20260510090254 44 359 0.0 0.0 0.00 0.00 0.00 99 1010.6
20260510085749 44 354 0.0 0.0 0.00 0.00 0.00 99 1010.3
20260510085243 45 354 0.0 0.0 0.00 0.00 0.00 99 1010.3
20260510084740 44 354 0.0 0.0 0.00 0.00 0.00 99 1010.2
20260510084237 44 352 1.0 1.0 0.00 0.00 0.00 99 1010.2
20260510083733 44 352 1.0 1.0 0.00 0.00 0.00 99 1010.0
20260510083231 44 7 0.0 0.0 0.00 0.00 0.00 99 1010.2
20260510082726 45 9 0.0 0.0 0.00 0.00 0.00 99 1009.9
20260510082223 45 1 0.0 0.0 0.00 0.00 0.00 99 1010.1
20260510081722 45 5 0.0 0.0 0.00 0.00 0.00 99 1010.1
20260510081218 44 357 0.0 0.0 0.00 0.00 0.00 99 1010.1
20260510080713 44 354 0.0 0.0 0.00 0.00 0.00 99 1010.0
20260510080209 44 348 0.0 0.0 0.00 0.00 0.00 99 1009.8
20260510075706 45 349 0.0 0.0 0.00 0.00 0.00 99 1009.9
20260510075204 45 28 1.0 1.0 0.00 0.00 0.00 99 1009.8
20260510074701 46 1 0.0 0.0 0.00 0.00 0.00 99 1009.8
20260510074157 46 1 0.0 0.0 0.00 0.00 0.00 99 1010.1
20260510073654 46 1 0.0 0.0 0.00 0.00 0.00 99 1010.1
20260510073149 46 1 0.0 0.0 0.00 0.00 0.00 99 1009.9
20260510072645 46 353 0.0 0.0 0.00 0.00 0.00 99 1009.9
20260510072142 46 332 0.0 1.0 0.00 0.00 0.00 99 1010.0
20260510071638 46 341 0.0 0.0 0.00 0.00 0.00 99 1009.7
20260510071136 46 10 0.0 0.0 0.00 0.00 0.00 99 1010.0
20260510070633 46 10 0.0 0.0 0.00 0.00 0.00 99 1010.3
20260510070131 46 9 0.0 0.0 0.00 0.00 0.00 99 1010.3
20260510065626 46 15 0.0 1.0 0.00 0.00 0.00 99 1010.2
20260510065123 46 329 1.0 1.0 0.00 0.00 0.00 99 1010.8
20260510064619 47 6 0.0 0.0 0.00 0.00 0.00 99 1010.6
20260510064116 47 358 0.0 0.0 0.00 0.00 0.00 99 1010.6
20260510063612 46 352 0.0 0.0 0.00 0.00 0.00 99 1010.9
20260510063110 46 2 0.0 0.0 0.00 0.00 0.00 99 1011.0
20260510062605 46 1 0.0 0.0 0.00 0.00 0.00 99 1011.0
20260510062101 46 357 0.0 1.0 0.00 0.00 0.00 99 1011.1
20260510061557 46 356 0.0 0.0 0.00 0.00 0.00 99 1011.1
20260510061055 46 9 0.0 0.0 0.00 0.00 0.00 99 1011.2
20260510060550 45 10 0.0 0.0 0.00 0.00 0.00 99 1011.1
20260510060047 45 7 1.0 1.0 0.00 0.00 0.00 99 1011.2
20260510055543 45 7 0.0 0.0 0.00 0.00 0.00 99 1011.3
20260510055042 44 359 0.0 0.0 0.00 0.00 0.00 99 1011.3
20260510054537 44 351 1.0 1.0 0.00 0.00 0.00 99 1011.6
20260510054032 44 16 1.0 1.0 0.00 0.00 0.00 99 1011.4
20260510053527 44 352 1.0 1.0 0.00 0.00 0.00 99 1011.6
20260510053024 44 7 0.0 0.0 0.00 0.00 0.00 99 1011.6
20260510052520 43 75 2.0 2.0 0.00 0.00 0.00 99 1011.4
20260510052016 42 355 0.0 0.0 0.00 0.00 0.00 99 1011.4
20260510051512 42 4 0.0 0.0 0.00 0.00 0.00 99 1011.4
20260510051009 41 350 1.0 1.0 0.00 0.00 0.00 99 1011.2
20260510050506 41 352 0.0 1.0 0.00 0.00 0.00 99 1010.7
20260510050003 41 352 0.0 0.0 0.00 0.00 0.00 99 1010.6
20260510045500 41 352 1.0 1.0 0.00 0.00 0.00 99 1010.3
20260510044956 41 351 0.0 0.0 0.00 0.00 0.00 99 1010.3
20260510044453 41 0 0.0 0.0 0.00 0.00 0.00 99 1010.3
20260510043950 41 354 0.0 0.0 0.00 0.00 0.00 99 1010.6
20260510043445 41 354 0.0 0.0 0.00 0.00 0.00 99 1010.7
20260510042944 41 352 0.0 0.0 0.00 0.00 0.00 99 1010.6
20260510042440 42 352 1.0 1.0 0.00 0.00 0.00 99 1010.6
20260510041930 42 10 1.0 1.0 0.00 0.00 0.00 99 1010.6
20260510041427 42 348 0.0 0.0 0.00 0.00 0.00 99 1010.4
20260510040925 42 18 1.0 1.0 0.00 0.00 0.00 99 1010.6
20260510040421 41 357 0.0 0.0 0.00 0.00 0.00 99 1010.7
20260510035916 42 6 1.0 1.0 0.00 0.84 0.84 99 1010.6
20260510035413 41 10 0.0 1.0 0.00 0.84 0.84 99 1010.0
20260510034908 42 356 0.0 1.0 0.00 0.84 0.84 99 1010.1
20260510034407 43 10 1.0 1.0 0.00 0.84 0.84 99 1009.8
20260510033902 43 10 0.0 0.0 0.00 0.84 0.84 99 1009.9
20260510033359 42 16 1.0 1.0 0.00 0.84 0.84 99 1009.7
20260510032855 42 5 1.0 1.0 0.00 0.84 0.84 99 1009.6
20260510032353 42 8 0.0 1.0 0.00 0.84 0.84 99 1010.1
20260510031848 43 5 1.0 1.0 0.00 0.84 0.84 99 1009.8
20260510031344 43 3 1.0 1.0 0.00 0.84 0.84 99 1010.0
20260510030843 43 10 0.0 1.0 0.00 0.84 0.84 99 1009.8
20260510030340 43 2 0.0 1.0 0.00 0.84 0.84 99 1010.2
20260510025838 43 1 0.0 0.0 0.00 0.84 0.84 99 1010.0
20260510025335 43 5 0.0 1.0 0.00 0.84 0.84 99 1010.1
20260510024832 42 359 0.0 0.0 0.00 0.84 0.84 99 1010.0
20260510024329 43 356 0.0 0.0 0.00 0.84 0.84 99 1009.8
20260510023825 43 4 0.0 1.0 0.00 0.84 0.84 99 1010.0
20260510023321 43 4 1.0 1.0 0.00 0.84 0.84 99 1009.9
20260510022819 43 354 0.0 1.0 0.00 0.84 0.84 99 1009.9
20260510022317 44 1 1.0 1.0 0.00 0.84 0.84 99 1009.8
20260510021817 43 14 1.0 1.0 0.00 0.84 0.84 99 1009.9
20260510021315 44 4 1.0 1.0 0.00 0.84 0.84 99 1010.0
20260510020811 43 5 1.0 1.0 0.00 0.84 0.84 99 1009.9
20260510020306 44 10 1.0 1.0 0.00 0.84 0.84 99 1010.1
20260510015802 44 355 0.0 0.0 0.00 0.84 0.84 99 1009.8
20260510015258 44 8 0.0 1.0 0.00 0.84 0.84 99 1009.6
20260510014753 44 5 1.0 1.0 0.00 0.84 0.84 99 1009.7
20260510014251 44 357 1.0 1.0 0.00 0.84 0.84 99 1009.9
20260510013747 44 356 0.0 0.0 0.00 0.84 0.84 99 1009.7
20260510013242 44 356 0.0 0.0 0.00 0.84 0.84 99 1009.8
20260510012737 45 2 0.0 0.0 0.00 0.84 0.84 99 1009.8
20260510012232 45 9 0.0 0.0 0.00 0.84 0.84 99 1009.7
20260510011727 45 15 1.0 1.0 0.00 0.84 0.84 99 1009.7
20260510011222 45 7 1.0 1.0 0.00 0.84 0.84 99 1009.7
20260510010719 46 359 1.0 1.0 0.00 0.84 0.84 99 1009.5
20260510010216 47 5 0.0 0.0 0.00 0.84 0.84 99 1009.4
20260510005713 47 9 0.0 1.0 0.00 0.84 0.84 99 1009.5
20260510005209 46 15 1.0 1.0 0.00 0.84 0.84 99 1009.3
20260510004707 47 0 0.0 0.0 0.00 0.84 0.84 99 1009.3
20260510004205 47 2 0.0 1.0 0.00 0.84 0.84 99 1009.2
20260510003702 48 353 0.0 1.0 0.00 0.84 0.84 99 1009.3
20260510003158 48 353 0.0 0.0 0.00 0.84 0.84 99 1009.3
20260510002657 49 357 0.0 0.0 0.00 0.84 0.84 99 1009.4
20260510002155 49 347 0.0 0.0 0.00 0.84 0.84 99 1009.1
20260510001652 49 343 0.0 0.0 0.00 0.84 0.84 99 1009.1
20260510001150 50 347 0.0 0.0 0.00 0.84 0.84 99 1009.1
20260510000651 50 331 1.0 1.0 0.00 0.84 0.84 99 1009.3
20260510000148 50 333 1.0 1.0 0.00 0.84 0.84 99 1008.9
20260509235645 50 336 1.0 1.0 0.00 0.84 0.84 99 1008.8
20260509235141 50 305 1.0 1.0 0.00 0.84 0.84 99 1008.6
20260509234637 50 309 1.0 1.0 0.00 0.84 0.84 99 1008.6
20260509234135 51 300 1.0 1.0 0.00 0.84 0.84 99 1008.4
20260509233633 51 298 1.0 2.0 0.00 0.84 0.84 99 1008.5
20260509233130 51 316 1.0 1.0 0.00 0.84 0.84 99 1008.5
20260509232626 51 264 1.0 2.0 0.00 0.84 0.84 99 1008.6
20260509232123 51 240 2.0 3.0 0.00 0.84 0.84 99 1008.7
20260509231619 51 272 1.0 2.0 0.00 0.84 0.84 99 1008.9
20260509231117 51 217 2.0 2.0 0.00 0.84 0.84 99 1008.7
20260509230614 51 256 4.0 5.0 0.00 0.84 0.84 99 1008.6
20260509230111 52 250 2.0 2.0 0.00 0.84 0.84 99 1008.4
20260509225607 52 202 2.0 2.0 0.00 0.84 0.84 99 1008.7
20260509225102 52 317 2.0 2.0 0.00 0.84 0.84 99 1008.6
20260509224557 52 247 2.0 2.0 0.00 0.84 0.84 98 1008.5
20260509224055 52 216 4.0 5.0 0.00 0.84 0.84 98 1008.2
20260509223552 52 244 3.0 3.0 0.00 0.84 0.84 98 1008.5
20260509223050 52 234 3.0 3.0 0.00 0.84 0.84 98 1008.1
20260509222545 52 192 3.0 3.0 0.00 0.84 0.84 99 1008.4
20260509222041 52 240 2.0 2.0 0.00 0.84 0.84 99 1008.6
20260509221537 53 291 1.0 1.0 0.00 0.84 0.84 99 1008.4
20260509221033 53 224 3.0 3.0 0.00 0.84 0.84 99 1008.5
20260509220529 53 268 3.0 3.0 0.00 0.84 0.84 99 1008.4
20260509220026 53 172 2.0 3.0 0.00 0.84 0.84 99 1008.7
20260509215521 52 154 1.0 2.0 0.00 0.84 0.84 99 1008.8
20260509215019 51 125 1.0 2.0 0.00 0.84 0.84 99 1009.0
20260509214516 51 293 3.0 3.0 0.00 0.84 0.84 99 1008.9
20260509214013 51 200 5.0 6.0 0.00 0.84 0.84 99 1009.2
20260509213509 51 191 3.0 3.0 0.00 0.84 0.84 99 1009.2
20260509213006 51 194 4.0 6.0 0.00 0.84 0.84 99 1009.0
20260509212503 52 236 3.0 3.0 0.00 0.84 0.84 99 1009.0
20260509212000 52 179 3.0 3.0 0.00 0.84 0.84 99 1009.0
20260509211455 52 215 5.0 5.0 0.00 0.84 0.84 98 1008.9
20260509210952 53 106 2.0 2.0 0.00 0.84 0.84 99 1009.1
20260509210449 51 285 1.0 1.0 0.00 0.84 0.84 99 1008.9
20260509205944 51 242 3.0 3.0 0.00 0.84 0.84 99 1009.1
20260509205439 51 290 3.0 3.0 0.00 0.84 0.84 99 1009.2
20260509204935 51 260 3.0 5.0 0.00 0.84 0.84 99 1009.1
20260509204432 51 180 4.0 5.0 0.00 0.84 0.84 99 1009.0
20260509203928 51 256 2.0 2.0 0.00 0.84 0.84 99 1009.2
20260509203424 51 244 3.0 5.0 0.00 0.84 0.84 99 1009.1
20260509202922 50 275 2.0 2.0 0.00 0.84 0.84 99 1009.2
20260509202418 50 101 1.0 1.0 0.00 0.84 0.84 99 1009.2
20260509201913 50 270 5.0 6.0 0.00 0.84 0.84 99 1009.3
20260509201408 50 228 5.0 7.0 0.00 0.84 0.84 99 1009.2
20260509200906 50 262 3.0 5.0 0.00 0.84 0.84 99 1009.4
20260509200405 50 272 6.0 7.0 0.00 0.84 0.84 99 1009.6
20260509195902 50 188 5.0 6.0 0.00 0.84 0.84 99 1009.3
20260509195402 50 146 3.0 3.0 0.00 0.84 0.84 99 1009.8
20260509194857 50 129 3.0 5.0 0.00 0.84 0.84 99 1009.8
20260509194353 50 9 2.0 2.0 0.00 0.84 0.84 99 1009.7
20260509193849 50 240 3.0 3.0 0.00 0.84 0.84 99 1009.7
20260509193344 50 161 3.0 3.0 0.00 0.84 0.84 99 1009.7
20260509192840 50 188 2.0 2.0 0.05 0.84 0.84 99 1009.7
20260509192336 50 180 1.0 2.0 0.05 0.84 0.84 99 1010.0
20260509191832 50 195 4.0 5.0 0.00 0.83 0.83 99 1009.8
20260509191328 50 250 4.0 5.0 0.00 0.83 0.83 99 1010.0
20260509190824 50 291 1.0 1.0 0.00 0.83 0.83 99 1009.8
20260509190321 50 230 3.0 3.0 0.00 0.83 0.83 99 1009.7